Regional Weather Roundup
Issued by NWS

Home | Current Version | Previous Version | Graphics & Text | Print | Product List | Glossary On
Versions: 1 2 3 4 5 6 7 8 9 10 11 12 13 14 15 16 17 18 19 20 21 22 23 24 25 26 27 28 29 30 31 32 33 34 35 36 37 38 39 40 41 42 43 44 45 46 47 48 49 50
576
ASUS43 KMKX 170900
RWRWI

WISCONSIN REGIONAL WEATHER ROUNDUP
NATIONAL WEATHER SERVICE MILWAUKEE/SULLIVAN WI
400 AM CDT TUE OCT 17 2017

NOTE: "FAIR" INDICATES FEW OR NO CLOUDS BELOW 12,000 FEET WITH NO
SIGNIFICANT WEATHER AND/OR OBSTRUCTIONS TO VISIBILITY.

WIZ001-002-006>008-014>016-023>028-171000-
NORTHWEST WISCONSIN

CITY           SKY/WX    TMP DP  RH WIND       PRES   REMARKS
SUPERIOR ARPT  CLEAR     45  38  78 SW7       29.91S
ASHLAND        CLEAR     50  38  63 SW10      29.91S
HAYWARD        CLOUDY    38  35  89 CALM      29.95S
SIREN          CLEAR     46  38  72 S3        29.95S
CUMBERLAND     CLOUDY    43  36  75 CALM      29.96S
RICE LAKE      CLOUDY    40  38  91 CALM      29.98S
CHETEK         CLOUDY    39  38  97 CALM      29.97S
LADYSMITH      CLOUDY    42  36  79 CALM      29.98F
EAU CLAIRE     NOT AVBL
MENOMONIE      CLEAR     44  39  83 CALM      29.98S
NEW RICHMOND   CLEAR     47  37  70 CALM      29.97S
OSCEOLA        CLEAR     40  40 100 CALM      29.99S
$$

WIZ003>005-009-010-017-018-171000-
NORTH CENTRAL WISCONSIN

CITY           SKY/WX    TMP DP  RH WIND       PRES   REMARKS
MANITOWISH WTR CLEAR     46  36  68 SW6       29.94R
ARBOR VITAE    CLEAR     43  37  81 CALM      29.94S
WOODRUFF       CLEAR     43  37  81 CALM      29.94S
RHINELANDER    CLOUDY    45  37  73 SW9       29.96F
EAGLE RIVER    CLEAR     42  34  72 SW8       29.94S
LAND O LAKES   CLEAR     44  36  72 CALM      29.94F
PHILLIPS       CLEAR     47  37  68 SW5       29.95F
TOMAHAWK       CLOUDY    40  36  83 CALM      29.97F
MEDFORD        CLEAR     44  36  72 SW5       29.98S
MERRILL        CLOUDY    43  36  76 CALM      29.98F
$$

WIZ029-030-035-036-043>047-171000-
CENTRAL WISCONSIN

CITY           SKY/WX    TMP DP  RH WIND       PRES   REMARKS
WAUSAU         CLOUDY    46  37  71 CALM      29.98S
MOSINEE        CLEAR     45  37  76 S9        30.00F
MARSHFIELD     CLEAR     44  35  70 SW7       29.99F
STEVENS POINT  CLEAR     42  35  76 SW7       30.01F
WAUPACA        PTCLDY    49  38  66 SW8       30.02S
WAUTOMA        CLEAR     36  35  96 CALM      30.04
WISC RAPIDS    CLEAR     48  39  71 SW8       30.01F
CAMP DOUGLAS   NOT AVBL
$$

WIZ011>013-019>022-031-037>040-048>050-171000-
NORTHEAST WISCONSIN

CITY           SKY/WX    TMP DP  RH WIND       PRES   REMARKS
ANTIGO         CLOUDY    44  36  74 SW7       29.98F
SHAWANO        PTCLDY    50  38  63 SW6       29.99F
OCONTO         CLEAR     50  37  61 SW8       29.98F
STURGEON BAY   CLEAR     55  38  52 SW18G24   29.97F
GREEN BAY      PTCLDY    51  40  65 SW7       30.01F
MANITOWOC      MOCLDY    55  37  50 SW16G23   30.02F
APPLETON       PTCLDY    48  34  57 SW15      30.01F
CLINTONVILLE   NOT AVBL
OSHKOSH        PTCLDY    49  38  65 SW15      30.02F
$$

WIZ032>034-041-042-053>061-171000-
SOUTHWEST WISCONSIN

CITY           SKY/WX    TMP DP  RH WIND       PRES   REMARKS
LA CROSSE      CLEAR     53  42  66 S7        30.03S
SPARTA         CLEAR     52  39  61 SW5       30.04R
VIROQUA        CLEAR     49  40  72 CALM      30.05F
BOSCOBEL       CLEAR     48  40  73 SW6       30.08F
PRAIRIE DU CHI PTCLDY    53  38  57 CALM      30.08F
PLATTEVILLE    CLOUDY    49  40  71 S7        30.12F
$$

WIZ056-057-062-063-064-067-068-171000-
SOUTH CENTRAL WISCONSIN

CITY           SKY/WX    TMP DP  RH WIND       PRES   REMARKS
REEDSBURG      CLEAR     52  38  60 SW9G16    30.05F
BARABOO/DELLS  CLEAR     52  37  55 SW10G18   30.05F
LONE ROCK      CLEAR     50  40  68 SW3       30.08F
MINERAL POINT  CLEAR     48  39  71 S6        30.11F
MADISON        CLEAR     52  39  61 S9        30.09F
MIDDLETON      CLEAR     53  38  55 SW14      30.09F
WATERTOWN      CLEAR     47  40  77 S6        30.10F
MONROE         CLOUDY    45  36  70 SW14      30.12F
JANESVILLE     CLEAR     46  37  71 SW7       30.13F
$$

WIZ051-052-058>065-066-070>072-171000-
SOUTHEAST WISCONSIN

CITY           SKY/WX    TMP DP  RH WIND       PRES   REMARKS
MILWAUKEE      PTCLDY    49  38  65 SW13      30.12F
WAUKESHA       CLEAR     46  36  66 S7        30.13F
MILWAUKEE/TIMM CLEAR     50  34  53 SW8       30.12F
RACINE         CLEAR     50  38  63 SW10      30.14F
BURLINGTON     CLEAR     39  39 100 S6        30.14F WCI  35
KENOSHA        CLEAR     48  38  68 SW9       30.14F
FOND DU LAC    CLOUDY    52  36  54 SW12G23   30.04F
SHEBOYGAN      CLOUDY    53  39  59 SW13      30.05F
WEST BEND      CLEAR     52  34  50 SW14      30.08F
JUNEAU         CLEAR     47  38  70 S8        30.09F
$$

LSZ147-162-171000-
LAKE SUPERIOR

STATION/POSITION TIME  TEMP    WIND        PRES    WAVE
                       AIR SEA DIR/SP/G            HT/PER
                 (UTC) (F)     (DEG/KT/KT) (MB)    (FT/S)
W MID LAKE BUOY  0750   54 53              1010.7R   3/ 5
DEVILS ISLAND    0800   56     250/ 17/ 20 1011.7R
SAXON HARBOR     0840   52     210/  4/  8 1012.5R
$$

LMZ867-665-643>646-171000-
LAKE MICHIGAN

STATION/POSITION TIME  TEMP    WIND        PRES    WAVE
                       AIR SEA DIR/SP/G            HT/PER
                 (UTC) (F)     (DEG/KT/KT) (MB)    (FT/S)
S GREEN BAY BUOY 0830   56 58  210/ 23/ 29 1014.7F
N MID LAKE BUOY  0750   59 60  210/ 25/ 31 1015.2F   6/ 6
NORTHPORT PIER   0840   57     220/  6/ 15 1013.9F
KEWAUNEE LAKESHO 0830   54     230/ 10/ 16 1015.3F
SHEBOYGAN LAKESH 0800   51     210/  9/ 11 1018.3F
PORT WASHINGTON  0840   55     250/ 10/ 15 1019.3F
MILWAUKEE LAKESH 0830   52     240/ 13/ 15   N/A
S MID LAKE BUOY  0750   60 62  250/ 17/ 19 1021.6F   4/ 5
KENOSHA   LAKESH 0800   52     230/ 10/ 16 1021.3
$$

TC  - TEMPERATURE IN CELSIUS
VSB - VISIBILITY IN STATUTE MILES
WCI - WIND CHILL INDEX
HX  - HEAT INDEX





USA.gov is the U.S. government's official web portal to all federal, state and local government web resources and services.